QPF
0.00 0.00 0.00 0.00 0.00 0.00 0.00 0.00 0.00 0.00 0.00 0.00 0.00 0.00 0.00 0.00 0.00 0.00 0.00 0.00 0.00 -0.00 0.00 0.00 0.00 0.00 0.00 0.00 0.00 0.00 0.00 0.00 0.00 0.00 0.00 0.00 0.00 0.00 -0.00 0.00 0.00 0.00 0.00 0.00 0.00 0.00 0.00 0.00 0.00 0.00 0.00 0.00 0.00 0.00 0.00 0.00 0.00 0.00 0.00 0.00 0.00 0.00 0.00
0.00 0.00 0.00 0.00 0.00 0.00 0.00 0.00 0.00 0.00 0.00 0.00 0.00 -0.00 0.00 0.00 -0.00 0.00 0.00 0.00 0.00 -0.00 0.00 0.00 -0.00 0.00 0.00 0.00 0.00 0.00 0.00 0.00 0.00 0.00 0.00 0.00 0.00 0.00 0.00 0.00 0.00 0.00 0.00 0.00 0.00 0.00 0.00 0.00 0.00 0.00 0.00 0.00 0.00 0.00 0.00 0.00 0.00 0.00 0.00 0.00 0.00 0.00 0.00
0.00 0.00 0.00 0.00 0.00 0.00 0.00 0.00 0.00 0.00 0.00 0.00 0.00 -0.00 -0.00 -0.00 0.00 0.00 0.00 0.00 0.00 0.00 0.00 0.00 0.00 0.00 0.00 0.00 0.00 0.00 0.00 0.00 0.00 0.00 0.00 0.00 0.00 -0.00 0.00 0.00 0.00 0.00 0.00 0.00 0.00 0.00 0.00 0.00 0.00 0.00 0.00 0.00 0.00 0.00 0.00 0.00 0.00 0.00 0.00 0.00 0.00 0.00 0.00
0.00 0.00 0.00 0.00 0.00 0.00 0.00 0.00 0.00 0.00 0.00 0.00 0.00 0.00 0.00 0.00 0.00 0.00 0.00 0.00 0.00 0.00 0.00 0.00 0.00 0.00 0.00 0.00 0.00 0.00 0.00 0.00 0.00 0.00 0.00 0.00 0.00 0.00 0.00 -0.00 -0.00 0.00 0.00 0.00 0.00 0.00 0.00 0.00 0.00 0.00 0.00 0.00 0.00 0.00 0.00 0.00 0.00 0.00 0.00 0.00 0.00 0.00 0.00
0.00 0.00 0.00 0.00 0.00 0.00 0.00 0.00 0.00 0.00 0.00 0.00 0.00 0.00 0.00 0.00 0.00 0.00 0.00 0.00 0.00 0.00 -0.00 0.00 0.00 0.00 0.00 0.00 0.00 0.00 0.00 0.00 0.00 0.00 0.00 0.00 0.00 0.00 -0.00 0.00 0.00 0.00 -0.00 0.00 0.00 0.00 0.00 0.00 0.00 0.00 0.00 0.00 0.00 0.00 0.00 0.00 0.00 0.00 0.00 0.00 0.00 0.00 -0.00
0.00 0.00 0.00 0.00 0.00 0.00 0.00 0.00 0.00 0.00 0.00 0.00 0.00 0.00 0.00 0.00 0.00 0.00 0.00 0.00 -0.00 0.00 0.00 0.00 0.00 0.00 0.00 0.00 0.00 0.00 0.00 0.00 0.00 0.00 0.00 0.00 0.00 0.00 0.00 0.00 0.00 0.00 -0.00 0.00 0.00 0.00 0.00 0.00 0.00 0.00 0.00 0.00 0.00 0.00 0.00 0.00 0.00 0.00 0.00 0.00 0.00 0.00 -0.00
0.00 0.00 0.00 0.00 0.00 0.00 0.00 0.00 0.00 0.00 0.00 0.00 0.00 0.00 0.00 0.00 0.00 0.00 0.00 0.00 0.00 0.00 0.00 0.00 0.00 0.00 0.00 0.00 0.00 0.00 0.00 0.00 0.00 0.00 0.00 0.00 0.00 0.00 0.00 0.00 0.00 0.00 0.00 0.00 0.00 0.00 0.00 0.00 0.00 0.00 0.00 0.00 0.00 0.00 0.00 0.00 0.00 0.00 0.00 0.00 0.00 0.00 0.00
0.00 0.00 0.00 0.00 0.00 0.00 0.00 0.00 0.00 0.00 0.00 0.00 0.00 0.00 0.00 0.00 0.00 0.00 0.00 0.00 0.00 0.00 0.00 0.00 0.00 0.00 0.00 0.00 0.00 0.00 0.00 0.00 0.00 0.00 0.00 0.00 0.00 0.00 0.00 0.00 0.00 0.00 0.00 0.00 0.00 0.00 0.00 0.00 0.00 0.00 0.00 0.00 0.00 0.00 0.00 0.00 0.00 0.00 0.00 0.00 0.00 0.00 0.00
0.00 0.00 0.00 0.00 0.00 0.00 0.00 0.00 0.00 0.00 0.00 0.00 0.00 0.00 0.00 0.00 0.00 0.00 0.00 0.00 0.00 0.00 0.00 0.00 0.00 0.00 0.00 0.00 0.00 0.00 0.00 0.00 0.00 0.00 0.00 -0.00 0.00 0.00 0.00 0.00 0.00 0.00 0.00 0.00 0.00 0.00 0.00 0.00 0.00 0.00 0.00 0.00 0.00 0.00 0.00 0.00 0.00 0.00 0.00 0.00 0.00 0.00 0.00
0.00 0.00 0.00 0.00 0.00 0.00 0.00 0.00 0.00 0.00 0.00 0.00 0.00 0.00 0.00 0.00 0.00 0.00 0.00 0.00 -0.00 0.00 0.00 0.00 0.00 0.00 0.00 0.00 0.00 0.00 0.00 0.00 0.00 0.00 0.00 0.00 0.00 0.00 0.00 0.00 0.00 0.00 0.00 0.00 0.00 0.00 0.00 0.00 0.00 0.00 0.00 0.00 0.00 0.00 0.00 0.00 0.00 0.00 0.00 0.00 0.00 0.00 0.00
0.00 0.00 0.00 0.00 0.00 0.00 0.00 0.00 0.00 0.00 0.00 0.00 0.00 0.00 0.00 0.00 0.00 0.00 0.00 0.00 0.00 0.00 0.00 0.00 0.00 0.00 0.00 0.00 0.00 0.00 0.00 0.00 0.00 0.00 0.00 0.00 0.00 0.00 0.00 0.00 0.00 0.00 0.00 0.00 0.00 0.00 0.00 0.00 0.00 0.00 0.00 0.00 0.00 0.00 0.00 0.00 0.00 0.00 0.00 0.00 0.00 0.00 0.00
0.00 0.00 0.00 0.00 0.00 0.00 0.00 0.00 0.00 0.00 0.00 0.00 0.00 0.00 0.00 0.00 0.00 0.00 0.00 0.00 0.00 0.00 0.00 0.00 0.00 0.00 0.00 0.00 0.00 0.00 0.00 0.00 0.00 0.00 0.00 0.00 0.00 0.00 0.00 0.00 0.00 0.00 0.00 0.00 0.00 0.00 0.00 0.00 0.00 0.00 0.00 0.00 0.00 0.00 0.00 0.00 0.00 0.00 0.00 0.00 0.00 0.00 0.00
0.00 0.00 0.00 0.00 0.00 0.00 0.00 0.00 0.00 0.00 0.00 0.00 0.00 0.00 0.00 0.00 0.00 0.00 0.00 0.00 0.00 0.00 0.00 0.00 0.00 0.00 0.00 0.00 0.00 0.00 0.00 0.00 0.00 0.00 -0.00 0.00 0.00 0.00 0.00 0.00 0.00 0.00 0.00 0.00 0.00 0.00 0.00 0.00 0.00 0.00 0.00 0.00 0.00 0.00 0.00 0.00 0.00 0.00 0.00 0.00 0.00 0.00 0.00
0.00 0.00 0.00 0.00 -0.00 -0.00 0.00 0.00 0.00 0.00 0.00 0.00 0.00 0.00 0.00 0.00 0.00 0.00 0.00 0.00 0.00 0.00 0.00 0.00 0.00 0.00 0.00 0.00 0.00 0.00 0.00 0.00 0.00 0.00 0.00 0.00 0.00 -0.00 0.00 0.00 0.00 0.00 0.00 0.00 0.00 0.00 0.00 0.00 0.00 0.00 0.00 0.00 0.00 0.00 0.00 0.00 0.00 -0.00 0.00 0.00 0.00 0.00 0.00
0.00 0.00 0.00 0.00 0.00 0.00 0.00 0.00 0.00 0.00 0.00 0.00 0.00 0.00 0.00 0.00 0.00 0.00 0.00 0.00 0.00 0.00 0.00 0.00 0.00 0.00 0.00 0.00 0.00 0.00 0.00 0.00 0.00 0.00 0.00 0.00 0.00 0.00 0.00 0.00 0.00 0.00 0.00 0.00 0.00 0.00 0.00 0.00 0.00 0.00 0.00 0.00 0.00 0.00 0.00 0.00 -0.00 0.00 0.00 0.00 0.00 0.00 0.00
0.00 0.00 0.00 0.00 0.00 0.00 0.00 0.00 0.00 0.00 0.00 0.00 0.00 0.00 0.00 0.00 0.00 0.00 0.00 0.00 0.00 0.00 0.00 0.00 0.00 0.00 0.00 0.00 0.00 0.00 0.00 0.00 0.00 0.00 0.00 0.00 0.00 0.00 0.00 0.00 0.00 0.00 0.00 0.00 0.00 0.00 0.00 0.00 0.00 0.00 0.00 0.00 0.00 0.00 0.00 0.00 -0.00 -0.00 -0.00 0.00 -0.00 0.00 -0.00
0.00 0.00 0.00 0.00 0.00 0.00 -0.00 0.00 0.00 0.00 0.00 0.00 0.00 0.00 0.00 0.00 0.00 0.00 0.00 0.00 0.00 0.00 0.00 0.00 0.00 0.00 0.00 0.00 0.00 0.00 0.00 0.00 0.00 0.00 0.00 0.00 0.00 0.00 0.00 0.00 0.00 0.00 0.00 0.00 0.00 0.00 0.00 0.00 0.00 0.00 0.00 0.00 0.00 0.00 0.00 0.00 0.00 0.00 0.00 -0.00 0.00 0.00 -0.00
0.00 0.00 0.00 -0.00 -0.00 0.00 0.00 0.00 0.00 0.00 0.00 -0.00 0.00 0.00 0.00 0.00 0.00 0.00 0.00 0.00 0.00 0.00 0.00 0.00 0.00 0.00 0.00 0.00 0.00 0.00 0.00 0.00 0.00 0.00 0.00 0.00 0.00 -0.00 0.00 0.00 0.00 0.00 0.00 0.00 0.00 0.00 0.00 0.00 0.00 0.00 0.00 0.00 0.00 -0.00 0.00 0.00 -0.00 0.00 0.00 0.00 0.00 0.00 0.00
-0.00 0.00 0.00 0.00 -0.00 0.00 0.00 0.00 0.00 0.00 0.00 0.00 0.00 0.00 0.00 0.00 0.00 0.00 0.00 0.00 0.00 0.00 0.00 0.00 0.00 0.00 0.00 0.00 0.00 0.00 0.00 0.00 0.00 0.00 0.00 0.00 0.00 0.00 -0.00 0.00 0.00 0.00 0.00 0.00 0.00 0.00 0.00 0.00 0.00 0.00 0.00 0.00 0.00 0.00 0.00 0.00 0.00 0.00 0.00 0.00 0.00 0.00 0.00
0.00 -0.00 0.00 0.00 0.00 0.00 0.00 0.00 0.00 0.00 0.00 0.00 0.00 0.00 0.00 0.00 0.00 0.00 0.00 0.00 0.00 0.00 0.00 0.00 0.00 0.00 0.00 0.00 0.00 0.00 0.00 0.00 0.00 0.00 0.00 0.00 -0.00 0.00 0.00 0.00 0.00 0.00 0.00 0.00 0.00 0.00 0.00 0.00 0.00 0.00 0.00 0.00 0.00 0.00 0.00 -0.00 0.00 0.00 0.00 -0.00 0.00 -0.00 0.00
-0.00 0.00 0.00 -0.00 -0.00 0.00 0.00 -0.00 0.00 -0.00 0.00 0.00 0.00 0.00 0.00 0.00 0.00 0.00 0.00 0.00 0.00 0.00 0.00 0.00 0.00 0.00 0.00 0.00 0.00 0.00 0.00 0.00 0.00 0.00 0.00 0.00 0.00 0.00 0.00 0.00 0.00 0.00 0.00 0.00 0.00 0.00 0.00 0.00 0.00 0.00 0.00 0.00 0.00 0.00 0.00 0.00 0.00 0.00 0.00 -0.00 -0.00 0.00 0.00
0.00 0.00 0.00 -0.00 -0.00 0.00 0.00 0.00 -0.00 0.00 0.00 0.00 0.00 0.00 0.00 -0.00 0.00 0.00 0.00 0.00 0.00 0.00 0.00 0.00 0.00 0.00 0.00 0.00 0.00 0.00 0.00 0.00 0.00 0.00 0.00 0.00 0.00 0.00 0.00 0.00 0.00 0.00 0.00 0.00 0.00 0.00 0.00 0.00 0.00 0.00 0.00 0.00 0.00 0.00 0.00 0.00 0.00 0.00 0.00 0.00 0.00 0.00 0.00
0.00 -0.00 0.00 -0.00 -0.00 0.00 0.00 0.00 -0.00 0.00 0.00 0.00 0.00 -0.00 0.00 0.00 0.00 0.00 0.00 0.00 0.00 0.00 0.00 0.00 0.00 0.00 0.00 0.00 0.00 0.00 0.00 0.00 0.00 0.00 0.00 0.00 0.00 0.00 0.00 0.00 0.00 0.00 0.00 0.00 0.00 0.00 0.00 0.00 0.00 0.00 0.00 0.00 0.00 0.00 0.00 0.00 0.00 0.00 -0.00 0.00 0.00 -0.00 0.00
0.00 0.00 0.00 -0.00 0.00 0.00 0.00 0.00 0.00 0.00 0.00 0.00 0.00 0.00 0.00 0.00 0.00 -0.00 0.00 0.00 0.00 0.00 0.00 0.00 0.00 0.00 0.00 -0.00 0.00 0.00 0.00 0.00 0.00 0.00 0.00 0.00 0.00 0.00 0.00 0.00 0.00 0.00 0.00 0.00 0.00 0.00 0.00 0.00 0.00 0.00 0.00 0.00 0.00 0.00 0.00 -0.00 0.00 0.00 0.00 0.00 -0.00 -0.00 -0.00
0.05 0.00 -0.00 0.00 0.00 0.00 0.00 0.00 -0.00 0.00 0.00 0.00 0.00 0.00 0.00 0.00 0.00 0.00 0.00 -0.00 0.00 0.00 0.00 -0.00 -0.00 0.00 0.00 0.00 0.00 0.00 0.00 0.00 0.00 0.00 0.00 0.00 0.00 0.00 0.00 0.00 0.00 0.00 0.00 0.00 0.00 0.00 0.00 0.00 0.00 0.00 0.00 0.00 0.00 0.00 0.00 0.00 0.00 0.00 0.00 0.00 0.00 0.00 -0.00
0.07 0.03 0.00 0.03 0.00 0.00 0.00 0.00 0.00 0.00 0.00 0.00 0.00 0.00 0.00 0.00 0.00 0.00 0.00 0.00 -0.00 0.00 0.00 0.00 0.00 0.00 0.00 0.00 0.00 0.00 0.00 0.00 0.00 0.00 0.00 0.00 0.00 0.00 0.00 0.00 0.00 0.00 0.00 0.00 0.00 0.00 0.00 0.00 0.00 0.00 0.00 0.00 0.00 0.00 0.00 0.00 0.00 0.00 0.00 0.00 0.00 -0.00 0.00
0.05 0.01 0.02 0.01 0.04 0.08 0.00 -0.00 0.00 0.00 0.00 0.00 0.00 0.00 0.00 0.00 0.00 0.00 0.00 0.00 0.00 0.00 0.00 -0.00 0.00 0.00 0.00 -0.00 0.00 -0.00 0.00 0.00 0.00 -0.00 0.00 0.00 -0.00 0.00 0.00 0.00 0.00 0.00 0.00 0.00 0.00 0.00 0.00 0.00 0.00 0.00 0.00 0.00 0.00 0.00 0.00 0.00 -0.00 0.00 0.00 -0.00 0.00 -0.00 0.00
0.05 0.05 0.08 0.02 0.06 0.02 0.00 0.00 0.00 0.00 -0.00 0.00 0.00 0.00 0.00 0.00 0.00 0.00 0.00 -0.00 0.00 0.00 0.00 0.00 0.00 0.00 0.00 0.00 0.00 0.00 0.00 0.00 0.00 0.00 0.00 0.00 0.00 0.00 0.00 0.00 0.00 0.00 0.00 0.00 0.00 0.00 0.00 0.00 0.00 0.00 0.00 0.00 -0.00 0.00 -0.00 0.00 0.00 0.00 0.00 0.00 0.00 0.00 0.00
0.05 0.05 0.05 0.10 0.01 0.00 0.00 0.00 -0.00 0.00 0.00 0.00 0.00 0.00 0.00 0.00 0.00 0.00 0.00 0.00 0.00 0.00 0.00 0.00 0.00 0.00 0.00 0.00 0.00 0.00 0.00 0.00 0.00 -0.00 0.00 0.00 0.00 0.00 0.00 0.00 0.00 -0.00 0.00 0.00 0.00 0.00 0.00 0.00 0.00 0.00 -0.00 0.00 0.00 0.00 0.00 -0.00 0.00 -0.00 0.00 -0.00 0.00 -0.00 0.00
0.06 0.02 0.04 0.04 0.05 0.02 0.06 0.01 0.01 0.01 -0.00 -0.00 0.00 0.00 0.00 -0.00 -0.00 0.00 0.00 -0.00 0.00 0.00 -0.00 0.00 0.00 0.00 0.00 0.00 0.00 -0.00 0.00 0.00 -0.00 0.00 0.00 0.00 0.00 0.00 0.00 0.00 0.00 -0.00 -0.00 0.00 -0.00 0.00 0.00 0.01 0.25 0.09 0.05 0.06 0.00 0.00 0.00 0.00 0.00 0.00 0.00 0.00 0.00 0.00 0.00
0.02 0.04 0.07 0.06 0.05 0.06 0.00 0.16 0.18 0.09 0.00 0.00 -0.00 0.00 0.00 0.00 0.00 0.00 0.00 0.00 -0.00 0.00 0.00 0.00 0.00 0.00 -0.00 0.00 0.00 -0.00 0.00 -0.00 -0.00 0.00 0.00 0.00 0.00 0.00 0.00 0.00 0.00 0.00 0.00 0.00 0.00 0.00 0.00 -0.00 0.05 0.30 0.27 0.29 0.20 0.10 0.11 0.10 0.17 0.20 0.17 0.01 0.00 0.00 0.00
0.02 0.02 0.03 0.05 0.01 0.01 0.09 0.07 0.18 0.07 0.10 0.02 0.01 0.00 -0.00 0.00 0.00 -0.00 0.00 0.00 -0.00 0.00 0.00 0.00 0.00 0.00 -0.00 0.00 0.00 -0.00 0.00 0.00 -0.00 -0.00 0.00 0.00 -0.00 0.00 0.00 0.00 -0.00 -0.00 0.00 0.00 -0.00 0.00 0.00 0.00 0.00 0.02 0.25 0.35 0.35 0.36 0.44 0.65 0.53 0.48 0.43 0.29 0.29 0.26 0.10
0.02 0.01 0.01 0.08 0.03 0.03 0.25 0.19 0.11 0.06 0.00 0.00 0.04 0.00 -0.00 0.00 -0.00 0.00 0.00 0.00 -0.00 -0.00 0.00 -0.00 0.00 0.00 -0.00 0.00 0.00 0.00 0.00 0.00 0.00 0.00 -0.00 -0.00 0.00 0.00 0.00 0.00 0.00 -0.00 0.00 -0.00 0.00 -0.00 0.00 0.00 0.00 0.00 0.06 0.23 0.30 0.67 0.97 0.99 0.94 0.89 0.80 0.72 0.59 0.69 0.90
0.03 0.02 0.01 0.01 0.05 0.08 0.12 0.14 0.20 0.15 0.12 0.07 0.00 0.00 0.00 -0.00 0.00 0.00 0.00 0.00 0.00 -0.00 -0.00 0.00 0.00 -0.00 0.00 0.00 0.00 -0.00 0.00 0.00 0.00 0.00 0.00 0.00 0.00 0.00 0.00 0.00 0.00 0.00 0.00 0.00 0.00 0.00 0.00 0.00 0.00 0.00 0.01 0.23 0.48 0.74 0.75 0.85 0.74 0.20 0.76 0.69 0.50 0.80 0.92
0.03 0.03 0.01 0.06 0.04 0.03 0.17 0.14 0.11 0.33 0.08 0.06 0.09 0.03 0.01 0.00 0.00 0.00 -0.00 0.00 -0.00 0.00 0.00 0.00 0.00 0.00 -0.00 0.00 0.00 0.00 0.00 0.00 -0.00 -0.00 0.00 0.00 0.00 0.00 0.00 0.00 0.01 0.01 0.01 0.00 0.00 0.00 0.00 0.00 0.00 0.00 0.01 0.12 0.43 0.52 0.89 0.95 0.93 1.12 1.06 1.01 0.85 0.64 0.87
0.02 0.02 0.01 0.08 0.03 0.01 0.01 0.04 0.11 0.11 0.07 0.10 0.05 0.13 0.01 0.00 0.00 0.00 0.00 -0.00 0.00 0.00 0.00 0.00 0.00 0.00 0.00 -0.00 0.00 0.00 0.00 0.00 0.00 0.00 0.00 0.00 0.00 0.00 0.00 0.00 0.01 0.02 0.03 0.02 0.03 0.12 0.16 0.01 0.02 0.02 0.15 0.15 0.56 0.63 0.59 0.20 0.75 0.81 1.11 1.39 1.67 1.02 1.00
0.01 0.01 0.04 0.20 0.06 0.01 0.02 0.03 0.05 0.22 0.09 0.01 0.01 0.07 0.07 0.05 0.04 0.01 0.00 0.00 0.00 0.00 -0.00 0.00 0.00 -0.00 0.00 0.00 -0.00 0.00 0.00 0.00 0.00 0.00 0.00 0.00 0.00 0.00 0.00 0.01 0.01 0.03 0.04 0.04 0.02 0.02 0.03 0.09 0.12 0.37 0.42 0.26 0.19 0.28 0.47 0.64 0.54 0.61 0.74 1.12 1.10 1.00 0.74
MSLP
999.92 999.88 999.28 1000.12 999.84 1006.72 1003.36 1003.52 1005.72 1004.52 1002.20 1004.04 1006.64 1006.64 1005.76 1006.20 1007.48 1008.28 1004.40 1004.36 1003.64 1000.88 1000.68 1000.36 999.52 999.60 999.88 999.68 999.84 999.88 1000.00 999.92 1000.08 1000.72 1000.60 1000.48 1000.56 1000.72 1000.88 1001.12 1001.32 1001.44 1001.52 1001.80 1001.96 1002.24 1002.68 1003.08 1003.64 1003.92 1004.04 1004.32 1004.88 1005.52 1006.12 1006.68 1007.04 1007.36 1007.76 1008.04 1008.44 1008.76 1009.16
999.40 998.08 998.32 998.76 998.76 999.32 1002.28 1004.88 1003.36 1000.88 1000.16 1001.60 1005.32 1009.48 1007.60 1008.28 1010.12 1008.32 1004.96 1006.16 1005.08 1004.80 1006.20 1000.12 1001.12 1001.24 1000.32 1000.28 1000.12 999.80 999.64 999.56 1000.24 1000.20 1000.04 999.88 999.88 999.88 999.88 1000.00 1000.16 1000.32 1000.64 1001.08 1001.28 1001.40 1001.68 1002.16 1002.48 1002.84 1003.32 1003.60 1004.08 1004.64 1005.20 1006.00 1006.60 1007.16 1007.40 1007.68 1008.04 1008.36 1008.80
999.16 998.04 999.00 1000.24 998.72 997.76 1000.52 1002.08 999.20 1003.20 1006.92 1007.44 1004.88 1006.52 1010.12 1010.28 1010.24 1009.16 1006.12 1004.64 1004.92 1003.96 1003.72 1001.88 1001.96 1001.80 1001.36 1000.60 1000.08 999.92 1000.16 1000.08 999.96 999.60 999.40 999.12 998.96 999.24 999.68 999.88 1000.00 1000.12 1000.32 1000.52 1000.64 1000.80 1000.92 1001.20 1001.48 1001.92 1002.48 1003.16 1003.80 1004.28 1004.64 1005.08 1005.68 1005.92 1006.36 1006.84 1007.32 1007.72 1008.08
998.92 998.92 1000.12 1004.24 1002.08 999.12 998.20 998.16 1000.72 999.40 1001.80 1003.96 1006.64 1004.72 1005.68 1006.20 1009.12 1008.80 1007.64 1005.80 1006.28 1002.40 1001.52 1000.52 1000.84 1000.60 999.96 999.88 999.96 999.96 999.32 999.28 999.16 999.04 998.92 999.00 999.12 999.08 999.16 999.24 999.32 999.40 999.48 999.52 999.68 1000.08 1000.60 1001.04 1001.52 1001.84 1002.36 1002.84 1003.36 1003.68 1004.20 1004.68 1005.00 1005.44 1006.00 1006.48 1006.88 1007.48 1007.68
999.32 1002.20 1000.24 1001.64 1001.12 1002.40 1002.00 1001.76 1002.04 1001.88 1001.68 1000.92 1001.40 1002.44 1003.84 1005.92 1007.72 1008.20 1007.92 1008.48 1004.64 1001.04 998.92 998.60 999.48 999.56 999.12 998.72 999.16 998.88 998.48 998.32 998.12 997.88 997.96 998.12 998.16 998.32 998.36 998.40 998.64 998.84 998.84 998.92 999.16 999.28 999.60 1000.00 1000.56 1001.24 1001.92 1002.44 1002.72 1003.16 1003.76 1004.12 1004.76 1005.28 1005.72 1005.92 1006.28 1006.68 1007.08
1001.72 1000.36 998.12 998.20 998.96 999.16 1000.24 1000.84 1002.00 1001.28 1002.96 1004.48 1005.96 1006.12 1001.80 1002.84 1005.08 1006.84 1007.28 1007.36 1003.40 999.36 997.04 997.08 997.20 998.08 997.92 997.64 997.72 998.04 997.60 997.44 997.40 997.28 997.08 997.04 997.52 997.40 997.44 997.56 997.76 998.04 998.32 998.60 998.68 998.92 999.32 1000.04 1000.80 1001.24 1001.36 1001.84 1002.48 1002.88 1003.04 1003.56 1004.16 1004.56 1004.92 1005.44 1005.72 1006.12 1006.48
1000.92 999.28 996.96 996.24 996.28 997.16 997.96 998.92 1000.60 1000.04 1001.20 1002.08 1003.96 1007.20 1005.40 1003.20 1002.84 1002.28 1003.44 1004.88 1002.80 997.44 996.16 995.92 996.08 996.48 997.00 996.92 996.92 997.28 996.92 996.68 996.64 996.48 996.24 996.32 996.40 996.76 996.88 996.92 997.04 997.28 997.72 998.00 998.36 998.84 999.28 999.64 1000.00 1000.36 1000.92 1001.44 1001.72 1002.04 1002.56 1003.00 1003.44 1003.80 1004.08 1004.56 1004.96 1005.44 1005.92
998.92 997.76 996.84 996.52 996.32 996.64 998.32 998.16 997.96 999.60 1001.52 1001.08 1002.12 1002.56 1002.28 1003.36 1003.12 1004.24 1004.64 1005.40 1001.48 997.76 995.44 995.40 996.08 996.48 996.56 996.00 995.80 996.04 995.84 995.64 996.16 996.24 996.16 996.20 996.40 996.16 996.00 996.00 996.20 996.56 997.00 997.56 998.44 999.04 999.40 999.72 1000.20 1000.52 1000.64 1000.80 1001.16 1001.68 1002.04 1002.48 1003.00 1003.36 1003.80 1004.20 1004.60 1005.12 1005.52
1002.00 1000.60 999.08 999.00 997.16 997.40 998.24 998.76 998.00 997.68 998.40 999.40 1000.08 1000.16 1001.32 1003.16 1002.76 1002.92 1004.64 1005.64 1002.32 998.36 995.60 994.80 995.32 996.48 996.24 996.56 996.00 995.84 996.08 995.80 995.84 995.88 995.80 995.80 995.72 995.80 995.96 996.08 996.12 996.40 997.08 998.00 998.36 998.48 998.76 999.08 999.44 999.80 1000.20 1000.60 1000.96 1001.24 1001.56 1002.00 1002.36 1002.80 1003.32 1003.72 1004.24 1004.68 1005.08
1005.64 1005.36 1004.28 1002.84 1001.72 999.60 998.04 997.12 997.40 997.36 998.16 999.68 1001.28 1003.12 1002.56 1004.68 1002.52 1002.56 1003.68 1003.20 1000.76 997.76 996.72 995.60 995.56 995.72 996.52 995.88 995.68 995.28 995.20 995.36 995.52 995.68 995.76 995.56 995.68 995.88 995.84 995.92 996.24 996.92 997.28 997.52 997.88 998.20 998.48 998.72 999.04 999.44 999.76 1000.00 1000.28 1000.64 1000.96 1001.20 1002.04 1002.64 1003.00 1003.24 1003.68 1004.28 1004.68
1000.76 1000.00 999.20 997.64 996.84 998.08 999.48 998.04 997.92 997.88 997.36 997.60 998.92 1000.24 1002.52 1003.60 1003.08 1003.32 1001.76 1001.04 1000.28 998.92 998.12 997.12 995.92 995.44 996.08 996.16 995.76 996.16 995.72 995.08 994.68 994.76 995.08 995.32 995.52 995.68 995.80 995.88 996.12 996.60 997.16 997.52 997.60 997.84 998.00 998.20 998.44 998.80 999.16 999.56 999.88 1000.24 1000.64 1000.96 1001.32 1001.88 1002.36 1002.84 1003.28 1003.80 1004.16
996.84 996.64 997.08 996.32 996.40 997.56 997.40 998.00 998.12 997.36 997.60 997.72 999.04 1000.92 1001.44 1000.36 1002.12 1003.76 1000.68 1000.48 1000.56 999.40 997.92 997.32 996.36 995.24 995.08 995.92 995.16 994.64 995.20 995.08 995.12 995.20 995.08 994.84 995.04 995.20 995.40 995.76 996.24 996.72 996.80 997.00 997.32 997.52 997.68 997.88 998.00 998.36 998.52 998.76 999.20 999.68 1000.20 1000.44 1000.84 1001.40 1001.84 1002.28 1002.76 1003.20 1003.60
996.16 995.52 995.76 995.44 996.16 996.24 996.40 996.44 996.72 997.72 997.20 997.56 998.84 998.96 999.16 999.32 1001.24 1001.68 1000.12 999.56 999.88 999.12 997.80 996.64 996.04 995.60 995.72 994.84 994.84 994.64 993.84 993.72 994.44 994.76 995.32 995.48 995.40 995.48 995.84 995.84 996.00 996.20 996.48 996.60 996.76 997.00 997.16 997.32 997.88 998.16 998.44 998.68 998.88 999.16 999.44 999.88 1000.32 1000.72 1000.96 1001.68 1002.24 1002.64 1003.00
996.96 995.72 995.52 995.12 995.72 996.04 996.20 996.28 996.36 996.32 996.64 996.84 997.00 997.44 998.04 998.28 998.32 998.40 998.64 998.44 998.40 997.36 996.20 996.04 995.40 994.40 994.68 994.24 994.08 994.04 994.76 994.68 994.36 994.52 994.60 995.00 995.28 995.64 995.80 995.80 995.80 995.96 996.08 996.20 996.20 996.52 996.88 997.16 997.48 997.88 998.20 998.40 998.52 998.84 999.12 999.32 999.64 999.84 1000.48 1001.20 1001.68 1002.04 1002.32
998.24 995.72 994.92 994.84 995.00 995.76 996.76 996.08 995.60 995.68 996.08 996.48 996.32 996.52 996.76 997.56 997.96 998.20 998.56 998.48 998.40 996.92 995.68 995.24 994.60 994.00 994.00 994.24 994.36 994.00 993.68 994.48 994.04 993.28 993.68 994.16 994.40 994.56 994.80 995.04 995.20 995.20 995.40 995.64 995.92 996.36 996.68 996.84 997.00 997.24 997.48 997.64 997.84 998.16 998.40 998.72 999.08 999.28 999.80 1000.60 1001.04 1001.28 1001.52
1000.36 996.36 995.64 995.04 994.88 995.16 996.16 996.40 996.04 995.84 996.04 997.20 996.88 997.44 996.28 997.44 998.56 998.12 998.84 999.80 999.20 997.12 995.52 994.68 994.48 994.68 993.84 993.76 994.00 993.88 993.76 993.80 994.48 994.40 993.76 993.76 993.92 993.88 994.00 994.20 994.52 994.96 995.24 995.56 995.84 996.16 996.32 996.36 996.48 996.68 997.00 997.16 997.52 997.80 997.80 998.08 998.20 998.52 999.20 999.80 1000.32 1000.64 1000.76
1001.88 998.68 996.04 995.48 995.36 996.56 997.88 996.84 995.32 995.44 995.44 995.08 994.84 994.76 994.84 995.16 995.48 997.52 998.84 998.40 996.48 995.32 994.36 994.76 994.40 994.64 993.96 993.48 993.00 993.72 993.56 993.44 993.92 994.12 994.04 994.08 993.92 993.80 993.88 994.20 994.52 994.68 994.84 994.92 995.04 995.28 995.44 995.72 996.00 995.96 996.04 996.68 997.12 997.00 997.32 997.16 997.52 998.28 998.72 999.08 999.56 1000.00 1000.32
1001.92 999.20 998.32 995.68 997.44 1000.08 997.72 992.72 992.44 993.68 994.88 994.80 996.08 996.32 995.44 994.68 994.40 995.24 994.76 994.40 994.04 993.92 994.52 994.60 994.16 994.44 994.24 993.24 992.20 991.92 992.44 993.60 994.04 993.60 993.40 993.48 993.52 993.72 993.84 993.72 993.76 993.92 994.08 994.28 994.44 994.48 994.64 994.76 994.80 994.80 995.20 995.72 995.80 995.80 996.04 996.52 997.28 997.64 998.12 998.60 999.00 999.44 999.80
1002.04 999.44 998.76 998.56 999.92 997.88 993.52 991.68 990.88 991.36 992.24 993.20 994.36 994.80 995.00 994.32 994.16 994.36 994.60 994.76 995.08 994.12 993.24 992.76 992.44 993.28 993.56 993.32 993.36 993.88 994.20 993.44 992.84 993.28 993.20 993.08 993.20 993.28 993.28 993.68 993.80 993.72 993.56 993.60 993.76 993.96 994.00 994.00 994.16 994.52 995.04 995.12 995.32 995.84 996.28 996.88 996.96 997.28 997.56 998.04 998.52 998.92 999.32
1000.04 1000.28 999.80 1000.48 998.28 994.20 992.16 991.44 991.24 991.52 991.72 992.48 994.00 996.32 995.64 995.20 994.24 993.56 995.00 994.64 994.32 993.72 993.96 993.72 993.48 993.00 993.52 993.88 994.44 994.56 993.64 993.08 993.88 993.68 992.76 992.56 992.52 992.64 992.56 992.68 992.76 992.84 992.92 992.92 993.00 993.20 993.00 993.48 993.92 994.16 994.44 994.48 995.16 995.64 995.72 996.20 996.48 996.76 997.12 997.60 997.96 998.32 998.80
1002.40 1000.08 999.68 997.96 995.16 994.52 993.40 992.84 992.72 992.24 993.88 993.88 994.32 998.28 997.56 995.48 995.36 995.16 995.12 995.00 994.16 994.08 994.20 993.96 993.52 993.40 992.84 993.84 994.80 994.04 994.36 994.28 993.28 993.08 992.92 992.12 991.68 991.40 991.36 991.40 991.36 991.00 991.12 991.84 992.04 992.20 992.68 993.04 993.52 993.80 993.68 993.96 994.48 994.96 995.56 995.84 996.12 996.44 996.84 997.32 997.52 997.76 998.08
999.72 1001.60 1001.04 998.40 997.76 998.64 996.16 993.32 992.20 990.72 990.72 991.16 991.80 994.48 997.76 995.28 994.96 995.00 994.76 995.04 994.80 994.28 993.88 993.76 994.20 993.44 993.44 995.72 996.48 995.32 995.04 994.40 993.60 992.88 992.72 992.36 991.72 991.20 991.32 991.20 991.28 991.60 991.88 991.72 991.64 992.12 992.64 992.92 992.96 993.04 993.24 993.68 994.20 994.80 995.16 995.36 995.84 996.24 996.60 996.84 996.84 997.12 997.40
1000.52 1001.32 1001.52 999.08 999.12 997.36 995.60 994.44 992.24 991.08 990.60 991.36 992.20 994.92 999.48 995.96 995.24 994.92 995.08 995.20 995.28 994.36 993.52 993.88 993.60 993.76 996.28 997.72 997.32 995.80 995.84 995.24 994.56 994.16 993.24 992.60 992.48 992.24 991.60 991.04 991.28 991.48 991.48 991.44 991.80 992.12 992.36 992.88 992.64 992.60 992.96 993.48 994.16 994.64 994.68 994.84 995.16 995.72 996.04 996.12 996.32 996.56 996.60
1002.16 1002.60 1002.36 999.16 996.68 999.68 999.64 997.68 996.12 994.16 991.92 990.60 992.60 1000.00 1001.28 996.24 995.40 995.20 995.16 995.48 995.52 995.40 995.28 994.40 994.76 995.08 996.52 997.52 996.92 995.96 995.80 995.92 995.40 994.92 994.80 994.20 993.32 992.64 992.00 992.00 991.92 991.24 990.72 991.40 991.96 992.16 992.40 992.32 992.00 992.28 992.68 993.28 993.88 994.20 994.32 994.24 994.76 995.08 995.16 995.16 995.12 995.24 995.56
1002.80 1002.48 1001.96 998.28 998.60 998.48 997.88 997.28 995.88 993.92 992.12 991.60 996.44 999.80 998.40 995.56 995.56 995.16 995.04 995.32 995.40 995.24 995.24 994.08 995.24 997.36 996.48 996.44 996.36 996.12 995.96 995.68 995.48 995.00 994.72 994.56 994.20 993.96 993.56 993.00 992.00 991.68 992.04 991.60 991.36 991.48 991.52 991.32 991.32 991.56 992.00 992.72 993.32 993.48 993.72 994.16 994.40 994.08 993.92 994.08 994.36 994.64 995.08
1003.72 1003.00 1002.68 1001.12 1000.28 999.52 998.20 996.20 995.72 993.04 992.76 995.80 999.48 997.12 994.92 995.40 995.60 995.36 995.08 995.36 995.44 995.44 995.72 996.16 996.80 997.04 996.68 996.76 996.64 996.60 996.32 996.24 996.00 995.56 995.12 994.44 993.72 993.72 993.68 993.04 992.44 992.00 991.48 991.88 991.88 991.32 990.64 990.56 990.92 991.40 991.80 992.36 992.56 992.88 993.32 993.68 993.36 992.88 993.12 993.48 993.84 994.32 995.08
1002.76 1003.12 1002.52 1002.28 1003.40 999.24 998.04 998.04 995.00 994.60 997.12 997.20 995.76 995.28 995.56 995.36 995.80 995.68 995.76 995.56 995.92 995.80 996.68 996.80 997.04 997.04 997.12 997.12 996.96 996.80 996.60 996.28 996.16 995.96 995.68 995.68 995.48 995.16 994.44 993.56 993.00 992.72 992.20 991.96 992.00 992.16 991.80 991.76 991.88 992.00 992.16 992.48 992.48 992.52 992.88 992.56 992.16 992.32 992.68 993.12 993.72 994.36 994.96
1004.00 1004.52 1005.12 1004.48 1002.64 1001.04 999.44 999.68 1000.88 999.20 998.80 996.80 995.76 995.64 996.56 996.08 995.92 996.24 996.36 996.48 996.32 996.32 996.68 997.20 997.24 997.24 997.16 996.92 996.84 996.64 996.48 996.40 996.28 996.12 996.08 995.96 996.00 995.68 995.32 995.12 994.40 993.44 992.76 992.52 992.32 992.16 992.16 992.24 992.04 991.76 992.04 993.04 993.52 993.96 993.96 993.12 992.88 992.68 992.76 993.16 993.64 994.32 994.92
1003.04 1003.48 1002.88 1001.76 1001.12 1000.92 1000.24 999.88 999.68 998.80 997.32 996.60 996.56 996.24 996.80 996.92 997.00 996.32 996.76 997.24 997.04 996.92 997.00 997.16 997.36 997.52 997.52 997.60 997.32 997.24 997.16 996.84 996.60 996.44 996.40 996.40 996.20 995.80 995.64 995.52 995.20 994.72 993.96 993.40 993.24 993.04 992.76 992.24 992.00 992.36 992.60 992.80 993.04 993.20 993.16 992.72 993.16 993.88 994.20 993.96 993.92 994.28 994.68
1001.56 1001.20 1001.40 1001.24 1001.04 1000.92 1000.40 999.32 999.04 998.44 997.72 997.08 997.28 997.28 997.16 997.44 997.20 996.92 997.24 997.40 997.36 997.36 997.12 997.40 997.88 997.96 997.96 997.76 997.64 997.48 997.36 997.20 996.92 996.52 996.28 996.08 995.80 995.60 995.32 995.00 994.80 994.84 994.60 994.08 993.60 993.44 993.44 993.48 993.36 992.80 992.36 992.44 993.16 993.96 993.88 993.48 993.16 993.36 993.92 994.64 994.96 994.72 994.60
1001.80 1003.12 1002.04 1002.16 1001.72 1001.20 1000.40 1000.04 999.24 998.56 998.04 997.96 997.68 998.16 997.92 997.48 997.20 997.20 997.20 997.24 997.48 997.52 997.44 997.68 998.12 998.36 998.20 998.16 998.08 997.92 997.76 997.56 997.40 997.20 997.04 996.68 996.44 996.20 995.92 995.56 995.16 994.80 994.68 994.76 994.80 994.68 994.60 994.28 993.76 993.44 993.40 993.32 993.16 993.08 993.04 993.28 993.52 993.88 994.48 994.92 995.36 995.48 995.40
1002.00 1001.80 1001.76 1002.00 1001.36 1000.92 1000.56 1000.12 1000.20 999.80 999.28 998.64 998.44 998.32 998.48 998.40 997.84 997.60 997.68 997.48 997.72 997.56 997.84 998.04 998.16 998.60 998.60 998.60 998.64 998.52 998.40 998.20 997.96 997.76 997.40 997.16 996.84 996.44 996.12 995.76 995.44 995.32 995.24 995.32 995.36 995.20 995.08 994.64 994.20 993.88 993.64 993.60 993.56 993.40 993.16 992.88 993.12 993.72 994.56 995.48 996.76 997.48 997.00
1001.68 1001.00 1001.16 1001.64 1001.00 1000.68 1000.60 1000.32 999.92 999.88 999.60 999.48 999.40 999.12 998.88 998.84 998.84 998.64 998.36 998.12 998.16 998.00 998.32 998.28 998.32 998.52 998.88 998.80 998.80 998.76 998.68 998.48 998.36 998.12 997.80 997.52 997.24 996.84 996.48 996.20 995.92 995.96 995.88 995.76 995.56 995.40 995.36 995.00 994.64 994.40 994.20 993.92 993.68 993.44 993.28 993.08 993.12 993.76 994.52 995.08 996.00 997.52 998.44
1002.68 1002.64 1002.36 1002.08 1002.68 1002.40 1001.68 1001.16 1000.64 1000.16 999.80 999.68 999.96 999.84 999.52 999.36 999.36 999.32 999.16 999.04 998.72 998.44 998.48 998.52 998.48 998.76 999.00 998.92 998.76 998.84 998.80 998.84 998.64 998.28 998.04 997.72 997.40 997.08 996.68 996.36 996.24 996.24 996.16 995.96 995.76 995.56 995.36 995.08 994.92 994.72 994.48 994.24 993.96 993.64 993.36 993.16 993.00 993.60 993.92 994.04 994.44 995.28 996.84
1002.24 1001.72 1001.56 1001.68 1001.92 1002.00 1002.00 1001.48 1000.60 999.92 999.96 999.96 1000.04 1000.24 1000.44 1000.16 999.76 999.60 999.48 999.56 999.40 999.20 999.12 998.96 998.84 998.96 998.96 999.08 998.84 998.84 998.96 998.92 998.64 998.36 998.08 997.88 997.64 997.44 997.04 996.84 996.68 996.60 996.48 996.12 995.88 995.76 995.56 995.24 995.08 994.76 994.52 994.28 994.04 993.84 993.72 993.56 993.48 994.04 994.76 995.44 995.44 995.32 995.72
1001.72 1001.48 1001.60 1001.40 1001.72 1002.08 1001.84 1001.16 1000.56 999.88 999.84 1000.20 1000.56 1000.80 1001.12 1001.16 1000.68 1000.12 999.80 999.76 999.84 999.96 999.80 999.60 999.32 999.16 999.08 999.08 998.88 999.12 999.20 998.92 998.68 998.52 998.24 998.04 998.00 997.84 997.48 997.28 997.12 996.84 996.76 996.72 996.56 996.44 996.12 995.92 995.88 995.68 995.32 994.88 994.48 994.20 994.00 994.24 994.68 994.76 994.76 995.80 996.52 996.72 997.20
1002.08 1001.60 1001.64 1001.60 1001.52 1001.56 1001.44 1001.16 1000.80 1000.56 1000.72 1001.12 1001.44 1001.56 1001.76 1001.80 1001.24 1000.56 1000.24 1000.20 1000.08 1000.12 1000.16 1000.08 999.80 999.44 999.28 999.16 999.12 999.32 999.36 999.28 999.00 998.76 998.48 998.24 998.08 998.04 998.04 997.76 997.48 997.24 997.04 996.92 996.76 996.60 996.48 996.36 996.32 996.32 996.20 995.92 995.64 995.20 994.68 994.36 994.68 995.92 996.16 996.08 996.96 997.04 997.16
Thickness
5837 5834 5838 5845 5826 5807 5810 5810 5798 5802 5824 5817 5789 5782 5798 5797 5775 5783 5806 5808 5821 5838 5845 5860 5868 5865 5869 5871 5872 5875 5875 5878 5876 5871 5875 5877 5877 5879 5878 5878 5877 5877 5876 5875 5874 5873 5869 5866 5863 5861 5861 5859 5855 5850 5846 5842 5839 5836 5833 5831 5829 5827 5824
5831 5846 5842 5842 5842 5832 5811 5796 5807 5826 5828 5820 5799 5775 5779 5778 5759 5775 5804 5804 5807 5813 5820 5846 5856 5852 5858 5865 5867 5872 5874 5875 5873 5874 5879 5880 5882 5882 5881 5882 5882 5881 5881 5878 5877 5877 5875 5873 5870 5868 5866 5863 5859 5855 5850 5845 5840 5837 5834 5832 5830 5828 5825
5826 5845 5829 5815 5831 5843 5828 5818 5831 5826 5798 5792 5793 5776 5767 5763 5753 5769 5793 5800 5805 5808 5817 5839 5845 5844 5854 5861 5865 5868 5870 5872 5873 5877 5880 5882 5884 5884 5882 5883 5883 5883 5883 5882 5882 5880 5878 5877 5874 5872 5869 5865 5860 5856 5853 5849 5845 5842 5839 5835 5832 5829 5827
5824 5827 5810 5793 5804 5827 5834 5830 5829 5823 5807 5797 5795 5790 5783 5770 5758 5764 5777 5786 5800 5819 5836 5845 5844 5850 5859 5861 5863 5867 5870 5875 5877 5880 5882 5883 5884 5884 5884 5885 5884 5885 5886 5886 5887 5884 5882 5880 5876 5873 5869 5865 5863 5858 5855 5851 5848 5844 5841 5837 5834 5830 5829
5810 5801 5802 5802 5804 5811 5813 5808 5804 5808 5812 5807 5802 5801 5802 5788 5768 5763 5767 5772 5797 5834 5855 5858 5856 5858 5864 5868 5869 5871 5876 5881 5883 5886 5888 5887 5888 5888 5889 5889 5888 5888 5888 5889 5890 5888 5886 5883 5877 5874 5870 5867 5865 5861 5857 5853 5849 5845 5841 5839 5837 5833 5831
5789 5795 5818 5828 5824 5821 5815 5807 5806 5806 5805 5801 5787 5781 5797 5803 5786 5779 5776 5771 5801 5847 5867 5870 5870 5866 5868 5875 5875 5875 5880 5885 5886 5891 5894 5893 5893 5893 5892 5893 5892 5891 5890 5889 5889 5888 5885 5881 5876 5874 5873 5870 5866 5863 5861 5857 5852 5849 5845 5843 5840 5836 5834
5790 5807 5830 5834 5832 5835 5828 5819 5820 5815 5807 5800 5781 5769 5785 5799 5795 5798 5793 5779 5806 5855 5873 5876 5877 5873 5875 5880 5881 5881 5885 5889 5890 5893 5897 5897 5896 5897 5898 5898 5897 5895 5893 5891 5888 5886 5882 5880 5878 5875 5874 5871 5869 5867 5864 5859 5855 5853 5850 5847 5844 5840 5836
5796 5811 5824 5829 5832 5831 5818 5817 5824 5819 5809 5807 5803 5797 5798 5796 5792 5795 5785 5774 5805 5853 5876 5880 5878 5876 5878 5881 5885 5886 5889 5893 5893 5892 5897 5897 5897 5900 5901 5901 5901 5899 5896 5891 5886 5882 5880 5879 5877 5875 5874 5873 5871 5868 5865 5862 5859 5856 5852 5849 5846 5842 5838
5762 5774 5782 5791 5804 5809 5806 5813 5823 5824 5820 5814 5808 5809 5803 5791 5791 5794 5779 5772 5804 5848 5873 5882 5878 5874 5875 5878 5883 5887 5889 5891 5891 5892 5896 5897 5897 5899 5900 5900 5899 5897 5892 5887 5884 5882 5881 5880 5878 5877 5875 5874 5871 5869 5867 5865 5861 5857 5854 5851 5847 5844 5840
5734 5743 5754 5768 5784 5797 5804 5813 5819 5822 5824 5815 5803 5798 5787 5775 5784 5794 5784 5782 5810 5842 5860 5870 5875 5873 5872 5874 5880 5884 5887 5891 5893 5893 5894 5895 5896 5895 5896 5898 5896 5892 5889 5885 5884 5883 5882 5881 5880 5878 5877 5875 5874 5872 5870 5868 5862 5858 5855 5852 5849 5845 5841
5758 5764 5778 5794 5800 5797 5797 5805 5811 5813 5820 5820 5809 5792 5780 5778 5784 5788 5792 5800 5813 5831 5845 5855 5868 5874 5871 5873 5878 5881 5885 5889 5892 5893 5893 5894 5895 5893 5894 5896 5893 5889 5886 5884 5884 5883 5882 5883 5882 5880 5879 5878 5876 5873 5871 5868 5865 5861 5857 5854 5851 5848 5845
5783 5791 5799 5808 5808 5801 5799 5803 5806 5808 5815 5818 5808 5792 5789 5795 5784 5778 5798 5813 5810 5821 5840 5848 5860 5871 5871 5872 5878 5882 5885 5888 5888 5889 5890 5891 5892 5891 5891 5891 5889 5887 5885 5885 5886 5885 5884 5883 5882 5882 5881 5880 5879 5876 5873 5870 5867 5863 5860 5856 5853 5850 5848
5782 5797 5802 5809 5809 5803 5806 5808 5806 5808 5811 5810 5805 5800 5803 5805 5792 5788 5809 5817 5811 5823 5841 5847 5857 5868 5869 5875 5882 5884 5887 5889 5888 5886 5884 5885 5886 5886 5885 5885 5886 5886 5885 5887 5887 5886 5886 5884 5882 5881 5881 5879 5879 5876 5874 5872 5869 5867 5864 5859 5856 5853 5850
5768 5787 5795 5806 5807 5801 5802 5806 5808 5810 5810 5810 5811 5810 5811 5812 5808 5809 5817 5818 5820 5832 5846 5854 5864 5872 5874 5878 5882 5883 5883 5884 5886 5887 5885 5884 5884 5883 5883 5884 5885 5886 5886 5888 5888 5886 5885 5884 5882 5881 5880 5880 5879 5877 5876 5874 5871 5870 5867 5861 5858 5856 5854
5748 5777 5791 5798 5801 5798 5795 5798 5806 5810 5807 5807 5808 5810 5812 5808 5805 5810 5813 5811 5816 5833 5849 5859 5865 5870 5875 5876 5876 5880 5883 5881 5883 5890 5891 5889 5887 5886 5886 5886 5887 5889 5888 5887 5887 5885 5883 5883 5883 5882 5882 5882 5882 5881 5879 5877 5875 5874 5869 5863 5861 5859 5859
5725 5764 5780 5786 5797 5798 5788 5788 5798 5802 5802 5803 5804 5809 5812 5808 5804 5805 5802 5798 5809 5832 5851 5858 5861 5865 5870 5874 5874 5877 5881 5880 5879 5883 5886 5887 5888 5889 5889 5889 5888 5888 5888 5886 5885 5883 5883 5884 5884 5884 5884 5883 5881 5882 5881 5881 5880 5876 5872 5867 5864 5863 5862
5711 5745 5764 5780 5787 5770 5764 5783 5798 5799 5801 5805 5807 5811 5816 5819 5817 5809 5802 5807 5825 5844 5852 5853 5856 5858 5862 5871 5878 5877 5878 5879 5876 5878 5881 5882 5884 5887 5887 5887 5887 5887 5888 5888 5887 5886 5886 5885 5886 5888 5887 5883 5882 5884 5885 5885 5882 5876 5874 5871 5867 5865 5863
5701 5728 5752 5769 5758 5740 5759 5802 5818 5811 5808 5807 5805 5806 5814 5824 5826 5822 5822 5830 5841 5848 5850 5850 5855 5858 5860 5871 5880 5879 5876 5875 5873 5876 5881 5881 5882 5884 5884 5885 5887 5888 5890 5890 5889 5890 5890 5890 5892 5892 5890 5887 5887 5888 5888 5884 5881 5877 5875 5873 5869 5866 5864
5700 5722 5736 5734 5728 5745 5784 5815 5824 5823 5821 5819 5811 5804 5810 5821 5825 5826 5826 5826 5832 5839 5845 5852 5857 5858 5860 5865 5867 5866 5867 5870 5871 5874 5879 5882 5883 5884 5884 5885 5885 5886 5889 5891 5891 5891 5893 5893 5894 5892 5889 5888 5887 5886 5884 5881 5880 5879 5877 5874 5871 5868 5865
5698 5711 5717 5718 5735 5771 5798 5808 5817 5822 5817 5815 5806 5789 5792 5808 5815 5816 5815 5816 5827 5835 5838 5847 5852 5852 5855 5856 5852 5854 5860 5864 5867 5868 5874 5881 5884 5886 5889 5889 5891 5892 5893 5894 5894 5895 5895 5894 5891 5889 5889 5889 5886 5883 5882 5881 5880 5880 5877 5874 5871 5869 5866
5694 5699 5711 5731 5749 5765 5780 5792 5806 5812 5808 5811 5805 5782 5778 5797 5806 5807 5810 5813 5822 5831 5833 5838 5843 5849 5853 5846 5842 5848 5853 5855 5861 5865 5871 5878 5883 5888 5891 5891 5894 5898 5898 5898 5898 5896 5894 5892 5889 5889 5890 5889 5886 5882 5880 5879 5878 5877 5875 5872 5871 5870 5868
5691 5691 5699 5722 5731 5739 5763 5782 5799 5814 5814 5816 5816 5789 5773 5789 5801 5802 5808 5810 5814 5825 5831 5831 5836 5844 5842 5827 5825 5837 5842 5845 5857 5862 5866 5873 5879 5884 5888 5889 5891 5892 5893 5894 5894 5893 5891 5888 5889 5891 5889 5886 5883 5880 5879 5878 5877 5874 5872 5871 5872 5871 5870
5679 5676 5682 5709 5724 5730 5747 5762 5782 5804 5810 5816 5814 5777 5754 5779 5798 5798 5801 5804 5805 5815 5823 5828 5833 5834 5822 5808 5812 5827 5831 5834 5844 5851 5857 5866 5871 5876 5881 5884 5885 5887 5889 5890 5890 5888 5886 5886 5888 5890 5886 5883 5880 5876 5877 5879 5876 5873 5872 5873 5874 5874 5874
5661 5661 5675 5710 5723 5716 5721 5737 5755 5776 5798 5814 5795 5744 5734 5773 5794 5791 5796 5799 5799 5804 5812 5820 5823 5816 5808 5806 5812 5821 5825 5827 5834 5840 5844 5852 5857 5863 5870 5875 5879 5883 5885 5886 5885 5883 5882 5885 5888 5889 5885 5881 5877 5875 5877 5877 5874 5874 5876 5877 5879 5880 5879
5649 5653 5668 5695 5705 5702 5714 5733 5745 5765 5790 5794 5762 5731 5748 5779 5784 5785 5794 5795 5795 5801 5806 5811 5807 5800 5802 5809 5811 5815 5820 5821 5826 5832 5837 5843 5848 5852 5857 5864 5871 5877 5878 5879 5881 5883 5886 5887 5889 5889 5886 5880 5877 5877 5876 5873 5874 5879 5882 5882 5882 5881 5878
5639 5646 5660 5674 5682 5697 5714 5727 5747 5770 5775 5759 5742 5747 5768 5777 5774 5782 5790 5788 5791 5795 5795 5797 5794 5791 5797 5802 5803 5808 5813 5815 5819 5824 5828 5836 5842 5844 5849 5855 5863 5869 5873 5874 5875 5878 5884 5885 5884 5884 5882 5877 5876 5878 5875 5874 5879 5884 5884 5881 5880 5878 5873
5633 5635 5644 5649 5658 5684 5705 5714 5732 5748 5742 5736 5747 5761 5767 5768 5770 5775 5778 5780 5785 5786 5784 5786 5786 5787 5791 5794 5797 5802 5806 5809 5813 5815 5817 5821 5825 5830 5836 5843 5850 5857 5863 5867 5868 5869 5873 5875 5874 5874 5871 5867 5868 5870 5869 5875 5883 5885 5881 5878 5874 5870 5866
5628 5620 5627 5638 5650 5672 5689 5694 5703 5714 5721 5735 5752 5756 5755 5760 5764 5765 5767 5771 5775 5777 5779 5779 5780 5783 5785 5788 5791 5795 5798 5802 5805 5807 5810 5812 5813 5817 5822 5826 5834 5842 5849 5856 5858 5860 5863 5865 5865 5865 5862 5858 5857 5856 5858 5865 5870 5869 5868 5869 5867 5863 5860
5630 5625 5633 5648 5657 5666 5678 5686 5694 5708 5723 5735 5742 5744 5747 5749 5752 5756 5759 5760 5763 5770 5772 5773 5774 5776 5778 5780 5783 5786 5788 5792 5795 5798 5802 5804 5806 5810 5814 5817 5822 5828 5834 5841 5845 5847 5851 5853 5854 5857 5856 5854 5851 5848 5850 5856 5857 5854 5853 5855 5857 5856 5855
5633 5635 5640 5649 5654 5658 5672 5684 5694 5705 5718 5727 5731 5735 5737 5739 5744 5750 5752 5753 5758 5763 5765 5766 5766 5766 5768 5771 5774 5777 5779 5783 5786 5790 5794 5797 5800 5804 5807 5812 5815 5818 5822 5827 5831 5833 5835 5836 5840 5843 5845 5846 5844 5841 5842 5846 5847 5846 5844 5843 5844 5846 5847
5627 5629 5632 5641 5649 5655 5665 5678 5689 5698 5708 5716 5721 5723 5726 5732 5739 5743 5745 5750 5754 5756 5759 5761 5758 5757 5760 5763 5764 5767 5771 5774 5777 5781 5784 5787 5791 5795 5798 5803 5806 5809 5812 5814 5815 5817 5819 5823 5828 5831 5833 5836 5836 5837 5838 5840 5839 5837 5835 5830 5827 5827 5830
5624 5628 5631 5637 5646 5655 5663 5671 5680 5687 5694 5703 5711 5715 5719 5725 5729 5734 5738 5742 5746 5749 5752 5752 5752 5751 5752 5753 5755 5757 5760 5762 5767 5771 5774 5777 5781 5785 5789 5793 5797 5800 5802 5802 5803 5805 5807 5811 5816 5821 5823 5823 5825 5828 5832 5834 5833 5829 5823 5816 5808 5803 5803
5621 5628 5631 5634 5641 5652 5660 5666 5674 5682 5689 5695 5701 5706 5712 5716 5719 5724 5728 5731 5736 5740 5742 5743 5746 5745 5743 5745 5748 5749 5751 5754 5757 5760 5764 5768 5772 5776 5781 5785 5789 5790 5791 5792 5794 5797 5799 5801 5805 5809 5811 5812 5816 5820 5822 5825 5825 5821 5814 5808 5801 5793 5786
5613 5621 5625 5629 5632 5638 5647 5658 5669 5678 5684 5689 5692 5696 5701 5704 5708 5713 5716 5719 5725 5730 5733 5735 5738 5737 5735 5738 5741 5742 5744 5747 5748 5752 5756 5761 5765 5769 5773 5776 5780 5782 5782 5785 5788 5789 5792 5795 5797 5799 5802 5804 5808 5810 5811 5815 5816 5811 5804 5801 5799 5796 5785
5613 5621 5627 5630 5631 5633 5641 5653 5665 5674 5680 5684 5687 5688 5688 5691 5697 5704 5708 5710 5713 5717 5721 5725 5728 5729 5730 5732 5735 5736 5737 5739 5741 5746 5750 5754 5757 5760 5763 5767 5770 5772 5774 5777 5780 5782 5784 5786 5787 5789 5793 5797 5800 5800 5801 5803 5801 5798 5791 5783 5780 5782 5779
5613 5620 5626 5630 5632 5635 5641 5649 5660 5669 5675 5677 5678 5678 5677 5679 5686 5694 5699 5702 5705 5708 5711 5715 5719 5722 5724 5726 5728 5729 5729 5732 5736 5739 5742 5746 5749 5751 5753 5757 5761 5762 5765 5767 5768 5770 5772 5772 5774 5776 5778 5781 5785 5787 5789 5789 5784 5779 5775 5768 5763 5765 5764
5611 5618 5625 5629 5632 5634 5640 5647 5655 5662 5666 5667 5667 5668 5669 5671 5677 5685 5691 5696 5699 5701 5703 5706 5710 5714 5717 5720 5722 5723 5723 5725 5728 5732 5736 5740 5742 5742 5744 5747 5750 5754 5757 5758 5759 5760 5761 5761 5762 5762 5762 5764 5767 5770 5774 5777 5771 5761 5756 5754 5754 5754 5752